This is the latest recevied weather packets stored in our database for station/object WB4FAY-4. If no packets are shown the sender has not sent any weather packets the latest 10 day(s).
| Time | Temp. | Humidity | Pressure | Rain* | Wind** | Luminosity | Snow |
|---|---|---|---|---|---|---|---|
| 1777523417 | 18.89° C | 96% | 1013.2 hPa | 48.01 mm | - | - | - |
| 1777523118 | 18.89° C | 96% | 1013.5 hPa | 48.01 mm | - | - | - |
| 1777522817 | 18.89° C | 96% | 1013.6 hPa | 48.01 mm | - | - | - |
| 1777522517 | 18.89° C | 96% | 1013.3 hPa | 48.01 mm | - | - | - |
| 1777522218 | 18.89° C | 96% | 1013.2 hPa | 48.01 mm | - | - | - |
| 1777521917 | 18.89° C | 96% | 1012.9 hPa | 48.01 mm | - | - | - |
| 1777521618 | 18.89° C | 96% | 1012.9 hPa | 48.01 mm | - | - | - |
| 1777521317 | 18.89° C | 96% | 1012.8 hPa | 48.01 mm | - | - | - |
| 1777521018 | 18.89° C | 96% | 1012.8 hPa | 48.01 mm | - | - | - |
| 1777520717 | 18.89° C | 96% | 1012.8 hPa | 48.01 mm | - | - | - |
| 1777520418 | 18.89° C | 95% | 1013.2 hPa | 48.01 mm | - | - | - |
| 1777520117 | 18.89° C | 95% | 1013.3 hPa | 48.01 mm | - | - | - |
| 1777519817 | 18.89° C | 95% | 1013.4 hPa | 48.01 mm | - | - | - |
| 1777519518 | 18.89° C | 95% | 1013.6 hPa | 48.01 mm | - | - | - |
| 1777519217 | 18.89° C | 94% | 1013.6 hPa | 48.01 mm | - | - | - |
| 1777518917 | 18.89° C | 94% | 1013.6 hPa | 48.01 mm | - | - | - |
| 1777518617 | 19.44° C | 95% | 1014.2 hPa | 48.01 mm | - | - | - |
| 1777518317 | 19.44° C | 95% | 1014.5 hPa | 48.01 mm | - | - | - |
| 1777518017 | 19.44° C | 94% | 1014.9 hPa | 48.01 mm | - | - | - |
| 1777517717 | 20° C | 94% | 1014.9 hPa | 48.01 mm | - | - | - |
| 1777517418 | 20° C | 92% | 1014.9 hPa | 48.01 mm | - | - | - |
| 1777517117 | 20.56° C | 91% | 1014.9 hPa | 48.01 mm | - | - | - |
| 1777516817 | 21.11° C | 88% | 1014.7 hPa | 48.01 mm | - | - | - |
| 1777516517 | 22.22° C | 84% | 1014.3 hPa | 48.01 mm | - | - | - |
| 1777516218 | 23.33° C | 88% | 1013.3 hPa | 48.01 mm | - | - | - |
* Rain latest 24 hours (hover to see other rain measurements)
** Current wind speed in m/s (hover to see current wind gust speed)